Cairns, Queensland

5:06 AM AEST on September 27, 2016 (GMT +1000)
Cairns International

Weather History for YBCS - March, 2013

Change the Weather History Date:

Saturday, March 2, 2013

  Actual Average Record
Temperature  
Mean Temperature 82 °F -  
Max Temperature 87 °F 85 °F 91 °F (2002)
Min Temperature 77 °F 73 °F 71 °F (2009)
Cooling Degree Days 17    
Growing Degree Days 32 (Base 50)    
Moisture  
Dew Point 78 °F    
Average Humidity 85    
Maximum Humidity 100    
Minimum Humidity 70    
Precipitation  
Precipitation 0.00 in - - ()
Sea Level Pressure  
Sea Level Pressure 29.59 in    
Wind  
Wind Speed 4 mph ()    
Max Wind Speed 14 mph    
Max Gust Speed -    
Visibility 7.5 miles    
Events      
Averages and records for this station are not official NWS values.
T = Trace of Precipitation, MM = Missing Value Source: Averaged Metar Reports

Daily Weather History Graph

Daily Weather History Graph

Search for Another Location

Airport or City:

Trip Planner

Search our weather history database for the weather conditions in past years. The results will help you decide how hot, cold, wet, or windy it might be!

Date:

Astronomy

Mar. 02, 2013 Rise Set
Actual Time 6:16 AM AEST 6:41 PM AEST
Civil Twilight 5:55 AM AEST 7:03 PM AEST
Nautical Twilight 5:29 AM AEST 7:28 PM AEST
Astronomical Twilight 5:03 AM AEST 7:54 PM AEST
Moon 9:47 PM AEST (3/2) 9:58 AM AEST (3/2)
Length of Visible Light 13h 08m
Length of Day
12h 24m
Waning Gibbous, 80% of the Moon is Illuminated
Mar 2
Waning Gibbous
Mar 5
Last Quarter
Mar 12
New
Mar 20
First Quarter
Mar 27
Full

Hourly Weather History & Observations

Time (AEST) Temp. Heat Index Dew Point Humidity Pressure Visibility Wind Dir Wind Speed Gust Speed Precip Events Conditions
12:00 AM 80 °F - 77 °F 89% 29.69 in - Calm Calm - -  
12:00 AM 80.6 °F 87.1 °F 77.0 °F 89% 29.68 in 6.2 mi Calm Calm - N/A   Scattered Clouds
12:30 AM 78.8 °F - 77.0 °F 94% 29.65 in 6.2 mi West 4.6 mph - N/A   Scattered Clouds
1:00 AM 79 °F - 77 °F 90% 29.67 in - WNW 3.5 mph - -  
1:00 AM 78.8 °F - 77.0 °F 94% 29.65 in 6.2 mi WNW 3.5 mph - N/A   Scattered Clouds
1:30 AM 78.8 °F - 77.0 °F 94% 29.62 in 6.2 mi SSE 5.8 mph - N/A   Scattered Clouds
2:00 AM 78.8 °F - 77.0 °F 94% 29.62 in 6.2 mi SSW 4.6 mph - N/A   Scattered Clouds
2:30 AM 78.8 °F - 77.0 °F 94% 29.62 in 6.2 mi WNW 2.3 mph - N/A   Partly Cloudy
3:00 AM 78 °F - 76 °F 93% 29.62 in - WNW 2.3 mph - -  
3:00 AM 78.8 °F - 77.0 °F 94% 29.62 in 6.2 mi WNW 2.3 mph - N/A   Mostly Cloudy
3:30 AM 77.0 °F - 77.0 °F 100% 29.62 in 6.2 mi Calm Calm - N/A   Mostly Cloudy
4:00 AM 78 °F - 76 °F 94% 29.62 in - Calm Calm - -  
4:00 AM 78.8 °F - 77.0 °F 94% 29.59 in 6.2 mi Calm Calm - N/A   Mostly Cloudy
4:30 AM 77.0 °F - 75.2 °F 94% 29.62 in 6.2 mi WNW 4.6 mph - N/A   Overcast
5:00 AM 77.0 °F - 75.2 °F 94% 29.59 in 6.2 mi Calm Calm - N/A   Overcast
5:30 AM 78.8 °F - 75.2 °F 89% 29.62 in 6.2 mi SSW 3.5 mph - N/A   Overcast
6:00 AM 78 °F - 76 °F 91% 29.61 in 19 mi SSE 1.2 mph - -   Partly Cloudy
6:00 AM 78.8 °F - 75.2 °F 89% 29.59 in 6.2 mi SSE 1.2 mph - N/A   Overcast
6:30 AM 78.8 °F - 75.2 °F 89% 29.59 in 6.2 mi SSE 8.1 mph - N/A   Overcast
7:00 AM 79 °F - 75 °F 83% 29.62 in - South 8.1 mph - -  
7:00 AM 78.8 °F - 75.2 °F 89% 29.59 in 6.2 mi South 8.1 mph - N/A   Overcast
7:30 AM 78.8 °F - 77.0 °F 94% 29.59 in 6.2 mi WSW 1.2 mph - N/A   Overcast
8:00 AM 80.6 °F 86.2 °F 75.2 °F 84% 29.62 in 6.2 mi WNW 4.6 mph - N/A   Overcast
8:30 AM 80.6 °F 87.1 °F 77.0 °F 89% 29.62 in 6.2 mi NW 6.9 mph - N/A   Overcast
9:00 AM 81 °F - 76 °F 81% 29.64 in 19 mi West 4.6 mph - -   Partly Cloudy
9:00 AM 80.6 °F 87.1 °F 77.0 °F 89% 29.62 in 6.2 mi West 4.6 mph - N/A   Overcast
9:30 AM 82.4 °F 90.9 °F 77.0 °F 84% 29.65 in 6.2 mi SSE 5.8 mph - N/A   Overcast
10:00 AM 83 °F - 76 °F 74% 29.67 in - East 5.8 mph - -  
10:00 AM 82.4 °F 90.9 °F 77.0 °F 84% 29.65 in 6.2 mi East 5.8 mph - N/A   Overcast
10:30 AM 84.2 °F 94.1 °F 77.0 °F 79% 29.65 in 6.2 mi Calm Calm - N/A   Overcast
11:00 AM 86.0 °F 96.9 °F 77.0 °F 74% 29.62 in 6.2 mi NE 4.6 mph - N/A   Mostly Cloudy
11:30 AM 86.0 °F 99.3 °F 78.8 °F 79% 29.62 in 6.2 mi North 8.1 mph - N/A   Mostly Cloudy
12:00 PM 87 °F - 79 °F 72% 29.61 in 19 mi North 11.5 mph - -   Partly Cloudy
12:00 PM 87.8 °F 102.5 °F 78.8 °F 75% 29.59 in 6.2 mi North 11.5 mph - N/A   Mostly Cloudy
12:30 PM 86.0 °F 99.3 °F 78.8 °F 79% 29.59 in 6.2 mi North 13.8 mph - N/A   Overcast
1:00 PM 86 °F - 79 °F 75% 29.60 in - North 11.5 mph - -  
1:00 PM 86.0 °F 99.3 °F 78.8 °F 79% 29.59 in 6.2 mi North 11.5 mph - N/A   Overcast
1:30 PM 87.8 °F 102.5 °F 78.8 °F 75% 29.56 in 6.2 mi North 10.4 mph - N/A   Mostly Cloudy
2:00 PM 87.8 °F 102.5 °F 78.8 °F 75% 29.56 in 6.2 mi North 9.2 mph - N/A   Overcast
2:30 PM 86.0 °F 99.3 °F 78.8 °F 79% 29.53 in 6.2 mi North 8.1 mph - N/A   Overcast
3:00 PM 86 °F - 78 °F 70% 29.55 in 19 mi NNE 6.9 mph - -   Partly Cloudy
3:00 PM 86.0 °F 96.9 °F 77.0 °F 74% 29.53 in 6.2 mi NNE 6.9 mph - N/A   Mostly Cloudy
3:30 PM 86.0 °F 99.3 °F 78.8 °F 79% 29.53 in 6.2 mi NNE 8.1 mph - N/A   Overcast
4:00 PM 86 °F - 78 °F 72% 29.54 in - NNE 4.6 mph - -  
4:00 PM 86.0 °F 99.3 °F 78.8 °F 79% 29.53 in 6.2 mi NNE 4.6 mph - N/A   Overcast
4:30 PM 86.0 °F 99.3 °F 78.8 °F 79% 29.50 in 6.2 mi NE 5.8 mph - N/A   Overcast
5:00 PM 86.0 °F 99.3 °F 78.8 °F 79% 29.50 in 6.2 mi NE 4.6 mph - N/A   Overcast
5:30 PM 86.0 °F 99.3 °F 78.8 °F 79% 29.53 in 6.2 mi NE 4.6 mph - N/A   Overcast
6:00 PM 85 °F - 79 °F 77% 29.55 in 16 mi NNE 5.8 mph - -   Partly Cloudy
6:00 PM 84.2 °F 96.1 °F 78.8 °F 84% 29.53 in 6.2 mi NNE 5.8 mph - N/A   Overcast
6:31 PM 84.2 °F 96.1 °F 78.8 °F 84% 29.53 in 6.2 mi NNE 5.8 mph - N/A   Overcast
7:00 PM 84 °F - 79 °F 80% 29.57 in - NNE 4.6 mph - -  
7:00 PM 84.2 °F 96.1 °F 78.8 °F 84% 29.56 in 6.2 mi NNE 4.6 mph - N/A   Overcast
7:30 PM 84.2 °F 96.1 °F 78.8 °F 84% 29.56 in 6.2 mi NE 4.6 mph - N/A   Mostly Cloudy
8:00 PM 84.2 °F 98.3 °F 80.6 °F 89% 29.56 in 6.2 mi Calm Calm - N/A   Mostly Cloudy
8:30 PM 84.2 °F 98.3 °F 80.6 °F 89% 29.56 in 6.2 mi Calm Calm - N/A   Mostly Cloudy
9:00 PM 84 °F - 80 °F 83% 29.60 in 16 mi North 4.6 mph - -   Overcast
9:00 PM 84.2 °F 98.3 °F 80.6 °F 89% 29.59 in 6.2 mi North 4.6 mph - N/A   Mostly Cloudy
9:30 PM 84.2 °F 98.3 °F 80.6 °F 89% 29.59 in 6.2 mi West 1.2 mph - N/A   Mostly Cloudy
10:00 PM 83 °F - 80 °F 88% 29.61 in - WNW 3.5 mph - -  
10:00 PM 82.4 °F 94.0 °F 80.6 °F 94% 29.59 in 6.2 mi WNW 3.5 mph - N/A   Mostly Cloudy
10:30 PM 82.4 °F 92.4 °F 78.8 °F 89% 29.59 in 6.2 mi WNW 4.6 mph - N/A   Mostly Cloudy
11:00 PM 82.4 °F 89.5 °F 75.2 °F 79% 29.59 in 6.2 mi West 5.8 mph - N/A   Mostly Cloudy
11:30 PM 82.4 °F 89.5 °F 75.2 °F 79% 29.56 in 6.2 mi West 6.9 mph - N/A   Mostly Cloudy